User: anonymous   Login
Location: Unspecified
(0.0000°N, 0.0000°E)
Time: 09:45:43
(UTC+01:00)
Language:

Cosmos 2263 Rocket - Orbit

View from above orbital plane
View from above orbital plane
View from above satellite
View from above satellite

Ground track
Ground track

The orbit data is extracted from the following two-line orbital elements,

1 22803U 93059B   16041.82678112 -.00000071  00000-0 -11458-4 0  9991
2 22803  70.9888 206.9243 0015365  50.5013 309.7466 14.16735285158547
Epoch (UTC): 10 February 2016 19:50:33
Eccentricity: 0.0015365
inclination: 70.9888°
perigee height: 825 km
apogee height: 847 km
right ascension of ascending node: 206.9243°
argument of perigee: 50.5013°
revolutions per day: 14.16735285
mean anomaly at epoch: 309.7466°
orbit number at epoch: 15854

The dashed part of the orbit path shows where the satellite is in the earth's shadow,  

DLR